Погода в Баландине

Россия / Оренбургская область     53°18′18″N   52°39′26″E
темп.,
°C
ветер,
м/с
пор.,
м/с
влажн.,
%
обл.,
%
осадки,
мм/ч
давл.,
гПа
погр.,
м
5 августа, чт
чт523:00+28сз5103399 0.0 1009260
02:00+23ссз8136087 0.0 1010388
05:00+20с397898 0.0 1011233
08:00+21сз457371 0.2 1011333
11:00+25ссз675319 0.3 1011869
14:00+28сз663994 0.0 10111727
17:00+29сз56282 0.0 10112838
20:00+25с793511 0.0 1012937
6 августа, пт
пт623:00+19с33515 0.0 101340
02:00+17ссз35685 0.0 101477
05:00+15ссз34710 0.0 101462
08:00+18с35580 0.0 1015233
11:00+24с56385 0.0 10151702
14:00+27ссз562810 0.0 10142372
17:00+28ссз56255 0.0 10142656
20:00+25ссв35315 0.0 1014150
7 августа, сб
сб723:00+18с334289 0.0 101521
02:00+16св33422 0.0 101640
05:00+14всв224725 0.0 101721
08:00+18всв23427 0.0 1018149
11:00+24с23315 0.0 10171183
14:00+27с44265 0.0 10171745
17:00+29с46250 0.0 10162375
20:00+26ссв58310 0.0 1016608
8 августа, вс
вс823:00+19св35451 0.0 101875
02:00+17св225041 0.0 101822
05:00+16св2255100 0.0 101917
08:00+19всв234781 0.0 1020172
11:00+24ссв34365 0.0 1019918
14:00+29с46313 0.0 10181688
17:00+30с5728100 0.0 10182088
20:00+28ссв473297 0.0 1018332
9 августа, пн
пн923:00+21св344164 0.0 101947
02:00+19в3444100 0.0 101948
05:00+17в3344100 0.0 102036
08:00+19в3439100 0.0 1020151
11:00+25всв3331100 0.0 1020603
14:00+29ссв342651 0.0 10191388
17:00+31ссв452489 0.0 10182033
20:00+28св222961 0.0 101832